Location: Bletchingley
(51.2333°N, 0.1000°W)
Time: 15:30:46
(UTC+00:00)

Cosmos 2266 Rocket - Pass Details

Date: 24 January 2021
Orbit: 934 x 1008 km, 82.9° (Epoch: 05 March)

Event Time Altitude Azimuth Distance (km) Brightness Sun altitude
Rises 19:15:40 0° 167° (SSE) 3,685 6.9 -24.5°
Enters shadow 19:18:15 10° 161° (SSE) 2,743 6.2 -24.9°
Exits shadow 19:31:54 - 15° (NNE) 3,373 6.7 -27.0°
Sets 19:32:37 0° 14° (NNE) 3,639 6.9 -27.2°
